Weather in Tofol

The Federated States of Micronesia     5°19′58″N   163°00′00″E
temp.,
°C
wind,
m/s
gust,
m/s
humid.,
%
clouds,
%
prec.,
mm/h
press.,
hPa
HPBL,
m
10 august, wed
wed1001:00+28e677893 1.3 1009786
04:00+28ese677910 2.2 1009809
07:00+28ese677922 1.4 1011744
10:00+28ese567823 2.3 1010776
13:00+28ese567899 0.8 1008696
16:00+28e567717 1.4 1008771
19:00+28e567835 0.0 1010795
22:00+28e5678100 0.1 1010763
11 august, thu
thu1101:00+28e5579100 1.0 1009571
04:00+28ese347899 2.7 1009558
07:00+28ese347769 3.6 1011377
10:00+28se4475100 4.4 1010644
13:00+28sse337486 0.4 1008654
16:00+28sse227469 1.8 1008567
19:00+28sse227598 0.6 1010411
22:00+28e3475100 4.6 1010260
12 august, fri
fri1201:00+27e5578100 2.2 1009614
04:00+26e4484100 6.8 1010476
07:00+25ese111491100 27.0 1012935
10:00+26ese81084100 40.4 1011792
13:00+27se6871100 1.0 1009543
16:00+27ese5570100 1.0 1009638
19:00+28ene557078 0.0 1011823
22:00+28ene5676100 0.0 1011854
13 august, sat
sat1301:00+28ene6777100 0.1 1009866
04:00+28e5676100 0.1 1010837
07:00+28e6775100 0.1 1011907
10:00+28ene667638 0.5 1011826
13:00+28ene55777 0.6 1009584
16:00+28ene5578100 2.9 1009482
19:00+27ene7878100 6.0 1011605
22:00+27ene6777100 6.8 1011537
14 august, sun
sun1401:00+27e6877100 1.3 1009629
04:00+27e5679100 6.2 1009494
07:00+27ene8880100 5.4 1010668
10:00+27e8981100 11.6 1010668
13:00+27ese8883100 3.8 1008510
16:00+27se7783100 7.8 1008576
19:00+27se6779100 4.1 1010643
22:00+27se6678100 5.1 1011670